When you browse on this site, cookies collect data to enhance your experience and personalize the content and advertising you see.
Visit our Privacy Policy to learn more. By continuing to use the site, you agree to this use of cookies and data.
  • En España
  • Lista de países
  • Para 7 días
  • Temperatura del agua
  • El tiempo en el mapa
  • Informadores
  • user-avatar
    Iniciar sesión

    Tiempo cada hora Kariba

    Hoy, 18 Febrero, Martes

    Tiempo Temperatura Precipitaciones Viento Presión Humedad
    00:00 +19°C° 0 mm 4 mps 724 mmHg 29%
    01:00 +18°C° 0 mm 4 mps 723 mmHg 31%
    02:00 +17°C° 0 mm 4 mps 723 mmHg 33%
    03:00 +17°C° 0 mm 4 mps 723 mmHg 35%
    04:00 +15°C° 0 mm 4 mps 723 mmHg 36%
    05:00 +15°C° 0 mm 4 mps 723 mmHg 38%
    06:00 +15°C° 0 mm 5 mps 724 mmHg 38%
    07:00 +16°C° 0 mm 5 mps 724 mmHg 37%
    08:00 +16°C° 0 mm 5 mps 725 mmHg 37%
    09:00 +20°C° 0 mm 5 mps 725 mmHg 32%
    10:00 +22°C° 0 mm 5 mps 725 mmHg 27%
    11:00 +25°C° 0 mm 5 mps 725 mmHg 22%
    12:00 +27°C° 0 mm 5 mps 725 mmHg 20%
    13:00 +28°C° 0 mm 5 mps 724 mmHg 18%
    14:00 +29°C° 0 mm 5 mps 723 mmHg 16%
    15:00 +29°C° 0 mm 5 mps 723 mmHg 15%
    16:00 +29°C° 0 mm 5 mps 723 mmHg 15%
    17:00 +29°C° 0 mm 5 mps 722 mmHg 15%
    18:00 +27°C° 0 mm 5 mps 723 mmHg 17%
    19:00 +25°C° 0 mm 4 mps 723 mmHg 20%
    20:00 +22°C° 0 mm 4 mps 723 mmHg 22%
    21:00 +22°C° 0 mm 4 mps 724 mmHg 23%
    22:00 +21°C° 0 mm 4 mps 724 mmHg 25%
    23:00 +20°C° 0 mm 4 mps 724 mmHg 27%

    Mañana, 19 Febrero, Miércoles

    Tiempo Temperatura Precipitaciones Viento Presión Humedad
    00:00 +19°C° 0 mm 5 mps 724 mmHg 28%
    01:00 +19°C° 0 mm 5 mps 723 mmHg 29%
    02:00 +17°C° 0 mm 5 mps 723 mmHg 31%
    03:00 +17°C° 0 mm 5 mps 723 mmHg 32%
    04:00 +17°C° 0 mm 4 mps 723 mmHg 33%
    05:00 +15°C° 0 mm 4 mps 723 mmHg 35%
    06:00 +16°C° 0 mm 5 mps 724 mmHg 34%
    07:00 +16°C° 0 mm 5 mps 724 mmHg 33%
    08:00 +17°C° 0 mm 6 mps 725 mmHg 33%
    09:00 +20°C° 0 mm 6 mps 725 mmHg 29%
    10:00 +23°C° 0 mm 6 mps 725 mmHg 25%
    11:00 +26°C° 0 mm 7 mps 725 mmHg 21%
    12:00 +27°C° 0 mm 7 mps 725 mmHg 19%
    13:00 +28°C° 0 mm 7 mps 724 mmHg 17%
    14:00 +30°C° 0 mm 7 mps 724 mmHg 16%
    15:00 +29°C° 0 mm 7 mps 723 mmHg 16%
    16:00 +29°C° 0 mm 7 mps 723 mmHg 16%
    17:00 +29°C° 0 mm 7 mps 723 mmHg 16%
    18:00 +27°C° 0 mm 6 mps 723 mmHg 19%
    19:00 +24°C° 0 mm 6 mps 724 mmHg 21%
    20:00 +22°C° 0 mm 5 mps 724 mmHg 23%
    21:00 +21°C° 0 mm 5 mps 724 mmHg 25%
    22:00 +20°C° 0 mm 5 mps 724 mmHg 27%
    23:00 +20°C° 0 mm 5 mps 725 mmHg 29%

    Pasado mañana, 20 Febrero, Jueves

    Tiempo Temperatura Precipitaciones Viento Presión Humedad
    00:00 +19°C° 0 mm 5 mps 724 mmHg 31%
    01:00 +17°C° 0 mm 6 mps 724 mmHg 32%
    02:00 +16°C° 0 mm 6 mps 724 mmHg 34%
    03:00 +16°C° 0 mm 6 mps 724 mmHg 35%
    04:00 +15°C° 0 mm 5 mps 724 mmHg 37%
    05:00 +14°C° 0 mm 5 mps 724 mmHg 38%
    06:00 +15°C° 0 mm 6 mps 724 mmHg 36%
    07:00 +15°C° 0 mm 7 mps 725 mmHg 34%
    08:00 +15°C° 0 mm 7 mps 725 mmHg 32%
    09:00 +18°C° 0 mm 7 mps 726 mmHg 28%
    10:00 +21°C° 0 mm 7 mps 726 mmHg 23%
    11:00 +23°C° 0 mm 7 mps 726 mmHg 19%
    12:00 +24°C° 0 mm 7 mps 725 mmHg 17%
    13:00 +26°C° 0 mm 6 mps 725 mmHg 15%
    14:00 +28°C° 0 mm 6 mps 724 mmHg 13%
    15:00 +28°C° 0 mm 6 mps 723 mmHg 13%
    16:00 +27°C° 0 mm 6 mps 723 mmHg 13%
    17:00 +27°C° 0 mm 6 mps 723 mmHg 13%
    18:00 +24°C° 0 mm 6 mps 723 mmHg 14%
    19:00 +22°C° 0 mm 5 mps 723 mmHg 16%
    20:00 +21°C° 0 mm 5 mps 724 mmHg 17%
    21:00 +20°C° 0 mm 5 mps 724 mmHg 18%
    22:00 +19°C° 0 mm 5 mps 724 mmHg 19%
    23:00 +17°C° 0 mm 5 mps 724 mmHg 20%

    21 Febrero, Viernes

    Tiempo Temperatura Precipitaciones Viento Presión Humedad
    00:00 +17°C° 0 mm 5 mps 724 mmHg 21%
    01:00 +16°C° 0 mm 5 mps 723 mmHg 23%
    02:00 +15°C° 0 mm 5 mps 723 mmHg 24%
    03:00 +15°C° 0 mm 5 mps 723 mmHg 25%
    04:00 +14°C° 0 mm 5 mps 723 mmHg 26%
    05:00 +14°C° 0 mm 5 mps 723 mmHg 27%
    06:00 +14°C° 0 mm 6 mps 724 mmHg 26%
    07:00 +15°C° 0 mm 6 mps 724 mmHg 25%
    08:00 +15°C° 0 mm 6 mps 725 mmHg 24%
    15:00 +29°C° 0 mm 6 mps 723 mmHg 10%
    16:00 +28°C° 0 mm 6 mps 723 mmHg 10%
    17:00 +28°C° 0 mm 6 mps 723 mmHg 10%
    18:00 +26°C° 0 mm 5 mps 723 mmHg 12%
    19:00 +23°C° 0 mm 5 mps 723 mmHg 14%
    20:00 +21°C° 0 mm 4 mps 723 mmHg 15%
    21:00 +20°C° 0 mm 4 mps 724 mmHg 16%
    22:00 +19°C° 0 mm 4 mps 724 mmHg 16%
    23:00 +18°C° 0 mm 4 mps 724 mmHg 17%

    22 Febrero, Sábado

    Tiempo Temperatura Precipitaciones Viento Presión Humedad
    00:00 +18°C° 0 mm 4 mps 724 mmHg 18%
    01:00 +17°C° 0 mm 4 mps 724 mmHg 18%
    02:00 +17°C° 0 mm 4 mps 724 mmHg 19%
    03:00 +15°C° 0 mm 5 mps 724 mmHg 20%
    04:00 +15°C° 0 mm 5 mps 724 mmHg 21%
    05:00 +14°C° 0 mm 5 mps 724 mmHg 22%
    06:00 +15°C° 0 mm 6 mps 724 mmHg 21%
    07:00 +15°C° 0 mm 6 mps 725 mmHg 21%
    08:00 +16°C° 0 mm 6 mps 726 mmHg 21%
    09:00 +20°C° 0 mm 7 mps 726 mmHg 18%
    10:00 +22°C° 0 mm 7 mps 726 mmHg 15%
    11:00 +24°C° 0 mm 7 mps 727 mmHg 13%
    12:00 +27°C° 0 mm 7 mps 726 mmHg 11%
    13:00 +28°C° 0 mm 7 mps 725 mmHg 10%
    14:00 +29°C° 0 mm 6 mps 724 mmHg 8%
    15:00 +29°C° 0 mm 6 mps 724 mmHg 8%
    16:00 +29°C° 0 mm 6 mps 724 mmHg 8%
    17:00 +28°C° 0 mm 6 mps 724 mmHg 8%
    18:00 +26°C° 0 mm 6 mps 724 mmHg 10%
    19:00 +23°C° 0 mm 5 mps 724 mmHg 12%
    20:00 +21°C° 0 mm 5 mps 724 mmHg 14%
    21:00 +20°C° 0 mm 5 mps 724 mmHg 16%
    22:00 +19°C° 0 mm 5 mps 724 mmHg 18%
    23:00 +17°C° 0 mm 5 mps 725 mmHg 20%

    23 Febrero, Domingo

    Tiempo Temperatura Precipitaciones Viento Presión Humedad
    00:00 +17°C° 0 mm 5 mps 724 mmHg 21%
    01:00 +16°C° 0 mm 5 mps 724 mmHg 23%
    02:00 +16°C° 0 mm 6 mps 724 mmHg 24%
    03:00 +15°C° 0 mm 6 mps 724 mmHg 27%
    04:00 +15°C° 0 mm 6 mps 724 mmHg 30%
    05:00 +14°C° 0 mm 6 mps 724 mmHg 32%
    06:00 +15°C° 0 mm 6 mps 724 mmHg 31%
    07:00 +15°C° 0 mm 7 mps 725 mmHg 30%
    08:00 +16°C° 0 mm 7 mps 726 mmHg 29%
    09:00 +18°C° 0 mm 7 mps 726 mmHg 26%
    10:00 +21°C° 0 mm 7 mps 726 mmHg 22%
    11:00 +23°C° 0 mm 8 mps 726 mmHg 19%
    12:00 +24°C° 0 mm 7 mps 725 mmHg 17%
    13:00 +27°C° 0 mm 7 mps 725 mmHg 14%
    14:00 +28°C° 0 mm 7 mps 724 mmHg 12%
    15:00 +27°C° 0 mm 7 mps 724 mmHg 12%
    16:00 +27°C° 0 mm 7 mps 723 mmHg 13%
    17:00 +26°C° 0 mm 7 mps 723 mmHg 13%
    18:00 +24°C° 0 mm 7 mps 723 mmHg 15%
    19:00 +22°C° 0 mm 6 mps 724 mmHg 17%
    20:00 +20°C° 0 mm 5 mps 724 mmHg 19%
    21:00 +20°C° 0 mm 5 mps 724 mmHg 19%
    22:00 +19°C° 0 mm 6 mps 725 mmHg 19%
    23:00 +19°C° 0 mm 6 mps 725 mmHg 20%
    Mostrar más